Flag for China Weather past 2 weeks in Langfang, Hebei, China

Now
86 °F

Fog.


Feels Like: 99 °F
Forecast: 75 / 87 °F
Wind: 3 mph from East

Location: Beijing Airport

Current Time: Jul 29, 2015 at 7:41:38 PM

Latest Report: Jul 29, 2015 at 7:00 PM


Visibility: 3 mi

Pressure: 29.53 "Hg

Humidity: 79%

Dew point: 79 °F

Location of LangfangLocation

Historic Weather in Langfang — Graph

°F

Langfang temperature yesterday

Maximum temperature yesterday: 88 °F (at 4:30 PM)
Minimum temperature yesterday: 73 °F (at 12:00 AM)
Average temperature yesterday: 79 °F

Past Weeks' High & Low Weather Summary

 TemperatureHumidityPressure
High95 °F (Jul 26, 3:00 PM)100% (Jul 18, 5:00 AM)29.80 "Hg (Jul 18, 5:00 AM)
Low68 °F (Jul 18, 6:30 AM)33% (Jul 14, 6:30 PM)29.50 "Hg (Jul 24, 4:00 PM)
Average79 °F77%29.66 "Hg
* Reported Jul 14 6:00 PM — Jul 29 6:30 PM, Langfang, Weather by CustomWeather, © 2015

Note: Actual official high and low records may vary slightly from our data, if they occured in-between our weather recording intervals... More about our weather records

Advertising

Langfang weather history for previous 24 hours

 ConditionsComfort  
Time TempWeatherWind HumidityBarometerVisibility
6:30 PM
Wed, Jul 29
86 °FHaze.1 mph79%29.53 "Hg3 mi
6:00 PM88 °FHaze.1 mph75%29.53 "Hg3 mi
5:30 PM88 °FHaze.1 mph75%29.50 "Hg3 mi
5:00 PM88 °FHaze.1 mph75%29.53 "Hg3 mi
4:30 PM88 °FHaze.6 mph70%29.53 "Hg3 mi
4:00 PM88 °FHaze.3 mph70%29.53 "Hg3 mi
3:30 PM90 °FSprinkles. Haze.3 mph67%29.56 "Hg3 mi
3:00 PM88 °FHaze.6 mph70%29.56 "Hg3 mi
2:30 PM90 °FHaze.3 mph67%29.56 "Hg3 mi
2:00 PM90 °FHaze.3 mph67%29.56 "Hg3 mi
1:30 PM90 °FHaze.3 mph71%29.56 "Hg3 mi
1:00 PM90 °FHaze.3 mph71%29.56 "Hg3 mi
12:30 PM90 °FHaze.1 mph71%29.56 "Hg3 mi
11:30 AM88 °FClear.1 mph70%29.59 "Hg4 mi
11:00 AM88 °FClear.1 mph70%29.59 "Hg4 mi
10:30 AM86 °FClear.3 mph75%29.59 "Hg4 mi
10:00 AM84 °FClear.1 mph79%29.59 "Hg4 mi
9:30 AM84 °FClear.3 mph74%29.59 "Hg4 mi
8:30 AM82 °FClear.3 mph79%29.59 "Hg4 mi
8:00 AM81 °FClear.3 mph79%29.56 "Hg4 mi
7:30 AM81 °FClear.3 mph84%29.56 "Hg4 mi
7:00 AM79 °FFog.3 mph84%29.53 "Hg3 mi
6:30 AM77 °FFog.1 mph94%29.56 "Hg2 mi
6:00 AM77 °FFog.1 mph94%29.56 "Hg3 mi
5:30 AM77 °FFog.1 mph89%29.56 "Hg3 mi
5:00 AM77 °FClear.1 mph89%29.53 "Hg4 mi
4:30 AM79 °FClear.1 mph84%29.56 "Hg4 mi
4:00 AM79 °FClear.10 mph84%29.53 "Hg4 mi
3:30 AM79 °FClear.6 mph84%29.50 "Hg4 mi
3:00 AM79 °FClear.1 mph84%29.56 "Hg4 mi
2:30 AM79 °FClear.6 mph84%29.56 "Hg5 mi
2:00 AM77 °FClear.1 mph89%29.56 "Hg5 mi
1:30 AM79 °FPassing clouds.6 mph84%29.53 "HgN/A
1:00 AM79 °FPassing clouds.3 mph84%29.56 "HgN/A
12:30 AM79 °FClear.1 mph89%29.59 "Hg10 mi
12:00 AM79 °FPassing clouds.3 mph89%29.62 "HgN/A
11:30 PM
Tue, Jul 28
79 °FClear.1 mph89%29.62 "Hg10 mi
11:00 PM77 °FClear.1 mph94%29.62 "Hg10 mi
10:30 PM77 °FClear.1 mph94%29.62 "Hg10 mi
10:00 PM81 °FPassing clouds.3 mph79%29.59 "HgN/A
9:30 PM79 °FClear.1 mph89%29.59 "Hg10 mi
9:00 PM81 °FClear.1 mph84%29.59 "Hg10 mi
8:30 PM81 °FClear.3 mph79%29.59 "Hg10 mi
8:00 PM82 °FClear.3 mph74%29.59 "Hg10 mi
7:30 PM82 °FSunny.1 mph79%29.56 "Hg10 mi
7:00 PM84 °FSunny.3 mph70%29.56 "Hg10 mi
Weather by CustomWeather, © 2015

See weather overviewHow to use our weather pages